Location: Il Ritiro
(43.4167°N, 13.1333°E)
Time: 00:57:24
(UTC+00:00)

In-Cosmos 22 Rocket - Pass Details

Date: 05 July 2020
Orbit: 791 x 887 km, 81.2° (Epoch: 11 August)

Event Time Altitude Azimuth Distance (km) Brightness Sun altitude
Exits shadow 21:29:55 37° 178° (S) 1,216 4.5 -19.9°
Maximum altitude 21:32:05 78° 98° (E) 812 4.0 -20.0°
Drops below altitude 10° 21:37:25 10° 13° (NNE) 2,369 7.3 -20.4°
Sets 21:39:48 0° 12° (NNE) 3,308 8.2 -20.6°
